Regional Weather Roundup
Issued by NWS

Home | Current Version | Previous Version | Graphics & Text | Print | Product List | Glossary On
Versions: 1 2 3 4 5 6 7 8 9 10 11 12 13 14 15 16 17 18 19 20 21 22 23 24 25 26 27 28 29 30 31 32 33 34 35 36 37 38 39 40 41 42 43 44 45 46 47 48 49 50
000
ASUS43 KBIS 302202
RWRND

NORTH DAKOTA REGIONAL WEATHER ROUNDUP
NATIONAL WEATHER SERVICE BISMARCK ND
500 PM CDT SAT JUL 30 2016

NOTE: "FAIR" INDICATES FEW OR NO CLOUDS BELOW 12,000 FEET WITH NO
SIGNIFICANT WEATHER AND/OR OBSTRUCTIONS TO VISIBILITY.


NDZ001>003-009>011-017-302300-
NORTHWEST NORTH DAKOTA

CITY           SKY/WX    TMP DP  RH WIND       PRES   REMARKS
WILLISTON      SUNNY     89  49  25 SE8       29.79F
MINOT          MOSUNNY   88  60  38 MISG      29.81F
MINOT AFB      SUNNY     83  57  40 S8        29.80F
$$

NDZ018>021-031>035-040>046-302300-
SOUTHWEST NORTH DAKOTA

CITY           SKY/WX    TMP DP  RH WIND       PRES   REMARKS
BISMARCK       MOSUNNY   86  66  51 SE14      29.82F
DICKINSON      SUNNY     86  51  29 W8        29.81F
GARRISON         N/A     84  65  52 SW7       29.82F
HETTINGER ARPT MOSUNNY   91  54  28 VRB5      29.83F
$$

NDZ004>008-012>016-024-026-027-054-302300-
NORTHEAST NORTH DAKOTA

CITY           SKY/WX    TMP DP  RH WIND       PRES   REMARKS
GRAND FORKS    CLOUDY    78  61  55 S12       29.90S
GRND FRKS AFB  CLOUDY    78  63  58 S15       29.90F
$$

NDZ022-023-025-028>030-036>039-047>053-302300-
SOUTHEAST NORTH DAKOTA

CITY           SKY/WX    TMP DP  RH WIND       PRES   REMARKS
FARGO          CLOUDY    80  59  48 S16G23    29.92F
JAMESTOWN      CLOUDY    78  60  53 S15G22    29.88F
$$




USA.gov is the U.S. government's official web portal to all federal, state and local government web resources and services.